Weather History for KCKV - December, 2011

Change the Weather History Date:

Saturday, December 24, 2011

  Actual Average Record
Temperature  
Mean Temperature 40 °F -  
Max Temperature 48 °F - 73 °F (1955)
Min Temperature 32 °F - -7 °F (1983)
Degree Days  
Heating Degree Days 25    
Month to date heating degree days 549  
Since 1 July heating degree days 1232  
Cooling Degree Days 0    
Month to date cooling degree days 0  
Moisture  
Dew Point 30 °F    
Average Humidity 67    
Maximum Humidity 85    
Minimum Humidity 49    
Precipitation  
Precipitation 0.00 in - 2.82 in (1988)
Month to date precipitation 5.19  
Sea Level Pressure  
Sea Level Pressure 30.44 in    
Wind  
Wind Speed 2 mph (WSW)    
Max Wind Speed 9 mph    
Max Gust Speed 13 mph    
Visibility 10 miles    
Events      
T = Trace of Precipitation, MM = Missing Value Source: NWS Daily Summary

Daily Weather History Graph

Daily Weather History Graph

Search for Another Location

Airport or City:

Trip Planner

Search our weather history database for the weather conditions in past years. The results will help you decide how hot, cold, wet, or windy it might be!

Date:

Astronomy

Dec. 24, 2011 Rise Set
Actual Time 6:59 AM CST 4:38 PM CST
Civil Twilight 6:30 AM CST 5:07 PM CST
Nautical Twilight 5:58 AM CST 5:40 PM CST
Astronomical Twilight 5:26 AM CST 6:11 PM CST
Moon 6:47 AM CST (12/24) 4:51 PM CST (12/24)
Length of Visible Light 10h 37m
Length of Day
9h 39m
New Moon, 0% of the Moon is Illuminated
Dec 24
New Moon
Dec 24
New
Jan 1
First Quarter
Jan 9
Full
Jan 16
Last Quarter

Hourly Weather History & Observations

Time (CST) Temp. Windchill Dew Point Humidity Pressure Visibility Wind Dir Wind Speed Gust Speed Precip Events Conditions
1:52 AM 36.0 °F 33.3 °F 28.9 °F 76% 30.43 in 10.0 mi NNW 3.5 mph - N/A   Overcast
2:52 AM 35.1 °F 31.0 °F 28.0 °F 76% 30.44 in 10.0 mi West 4.6 mph - N/A   Overcast
3:52 AM 35.1 °F 32.2 °F 28.9 °F 78% 30.44 in 10.0 mi WNW 3.5 mph - N/A   Overcast
4:52 AM 35.1 °F 32.2 °F 28.0 °F 76% 30.46 in 10.0 mi WNW 3.5 mph - N/A   Overcast
5:52 AM 35.1 °F 32.2 °F 28.9 °F 78% 30.48 in 10.0 mi North 3.5 mph - N/A   Overcast
6:52 AM 34.0 °F - 28.0 °F 79% 30.49 in 10.0 mi Calm Calm - N/A   Overcast
7:35 AM 33.8 °F - 28.4 °F 81% 30.47 in 10.0 mi Calm Calm - N/A   Scattered Clouds
7:52 AM 34.0 °F - 28.9 °F 82% 30.49 in 10.0 mi Calm Calm - N/A   Clear
8:52 AM 36.0 °F - 28.9 °F 76% 30.48 in 10.0 mi Calm Calm - N/A   Clear
9:52 AM 37.9 °F 32.7 °F 30.9 °F 76% 30.49 in 10.0 mi South 6.9 mph - N/A   Clear
10:52 AM 39.9 °F 37.8 °F 30.9 °F 70% 30.47 in 10.0 mi SSW 3.5 mph - N/A   Clear
11:52 AM 43.0 °F 39.5 °F 30.9 °F 62% 30.44 in 10.0 mi WSW 5.8 mph - N/A   Clear
12:52 PM 44.1 °F 41.5 °F 30.0 °F 58% 30.42 in 10.0 mi SW 4.6 mph - N/A   Clear
2:52 PM 46.9 °F - 30.0 °F 52% 30.39 in 10.0 mi Calm Calm - N/A   Clear
3:52 PM 46.9 °F - 28.9 °F 50% 30.40 in 10.0 mi Calm Calm - N/A   Clear
4:52 PM 45.0 °F 43.5 °F 28.9 °F 53% 30.40 in 10.0 mi South 3.5 mph - N/A   Clear
5:52 PM 42.1 °F - 28.9 °F 60% 30.40 in 7.0 mi Calm Calm - N/A   Clear
6:52 PM 42.1 °F 40.2 °F 30.0 °F 62% 30.40 in 10.0 mi SSW 3.5 mph - N/A   Clear
7:52 PM 41.0 °F - 32.0 °F 70% 30.42 in 10.0 mi Calm Calm - N/A   Clear
8:52 PM 41.0 °F - 30.9 °F 67% 30.42 in 10.0 mi Calm Calm - N/A   Clear
9:52 PM 39.0 °F - 33.1 °F 79% 30.41 in 10.0 mi Calm Calm - N/A   Clear
10:52 PM 37.9 °F - 33.1 °F 83% 30.41 in 8.0 mi Calm Calm - N/A   Clear
11:52 PM 35.1 °F - 32.0 °F 89% 30.40 in 10.0 mi Calm Calm - N/A   Clear